| time (UTC) | temp C | wind direction | speed KPH | gust KPH | rain 1hr cm | rain 24hr cm | rain mn cm | humidity % | barometer mb |
| 20260509213016 | 31 | 0.0 | 3.2 | 0.00 | 0.00 | 0.00 | 53 | 1009.7 | |
| 20260509212536 | 31 | 23 | 4.8 | 9.7 | 0.00 | 0.00 | 0.00 | 52 | 1009.7 |
| 20260509212016 | 31 | 68 | 3.2 | 12.9 | 0.00 | 0.00 | 0.00 | 52 | 1009.8 |
| 20260509211516 | 31 | 68 | 4.8 | 9.7 | 0.00 | 0.00 | 0.00 | 51 | 1009.9 |
| 20260509211016 | 31 | 90 | 4.8 | 11.3 | 0.00 | 0.00 | 0.00 | 50 | 1010.0 |
| 20260509210516 | 31 | 90 | 3.2 | 8.0 | 0.00 | 0.00 | 0.00 | 52 | 1010.2 |
| 20260509210016 | 31 | 113 | 1.6 | 8.0 | 0.00 | 0.00 | 0.00 | 52 | 1010.2 |
| 20260509205516 | 31 | 113 | 1.6 | 8.0 | 0.00 | 0.00 | 0.00 | 50 | 1010.3 |
| 20260509205016 | 31 | 113 | 3.2 | 11.3 | 0.00 | 0.00 | 0.00 | 51 | 1010.4 |
| 20260509204516 | 30 | 180 | 1.6 | 6.4 | 0.00 | 0.00 | 0.00 | 53 | 1010.5 |
| 20260509204016 | 30 | 180 | 3.2 | 8.0 | 0.00 | 0.00 | 0.00 | 52 | 1010.5 |
| 20260509203516 | 30 | 180 | 3.2 | 8.0 | 0.00 | 0.00 | 0.00 | 51 | 1010.5 |
| 20260509203036 | 30 | 180 | 4.8 | 14.5 | 0.00 | 0.00 | 0.00 | 49 | 1010.6 |
| 20260509202516 | 30 | 135 | 6.4 | 16.1 | 0.00 | 0.00 | 0.00 | 46 | 1010.7 |
| 20260509202016 | 30 | 158 | 6.4 | 14.5 | 0.00 | 0.00 | 0.00 | 50 | 1010.7 |
| 20260509201516 | 30 | 158 | 6.4 | 17.7 | 0.00 | 0.00 | 0.00 | 48 | 1010.9 |
| 20260509201015 | 31 | 90 | 4.8 | 17.7 | 0.00 | 0.00 | 0.00 | 50 | 1011.2 |
| 20260509200515 | 32 | 90 | 3.2 | 8.0 | 0.00 | 0.00 | 0.00 | 52 | 1011.5 |
| 20260509200015 | 32 | 68 | 3.2 | 8.0 | 0.00 | 0.00 | 0.00 | 50 | 1011.4 |
| 20260509195516 | 32 | 68 | 4.8 | 11.3 | 0.00 | 0.00 | 0.00 | 50 | 1011.4 |
| 20260509195015 | 32 | 45 | 1.6 | 6.4 | 0.00 | 0.00 | 0.00 | 53 | 1011.4 |
| 20260509194516 | 31 | 23 | 4.8 | 8.0 | 0.00 | 0.00 | 0.00 | 53 | 1011.3 |
| 20260509194015 | 31 | 23 | 3.2 | 12.9 | 0.00 | 0.00 | 0.00 | 57 | 1011.3 |
| 20260509193516 | 31 | 23 | 6.4 | 12.9 | 0.00 | 0.00 | 0.00 | 52 | 1011.3 |
| 20260509193016 | 31 | 23 | 6.4 | 17.7 | 0.00 | 0.00 | 0.00 | 54 | 1011.4 |
| 20260509192516 | 31 | 338 | 6.4 | 17.7 | 0.00 | 0.00 | 0.00 | 56 | 1011.4 |
| 20260509192016 | 30 | 0 | 6.4 | 16.1 | 0.00 | 0.00 | 0.00 | 58 | 1011.3 |
| 20260509191536 | 31 | 23 | 8.0 | 16.1 | 0.00 | 0.00 | 0.00 | 56 | 1011.4 |
| 20260509191036 | 30 | 23 | 6.4 | 16.1 | 0.00 | 0.00 | 0.00 | 59 | 1011.3 |
| 20260509190515 | 30 | 23 | 8.0 | 17.7 | 0.00 | 0.00 | 0.00 | 59 | 1011.4 |
| 20260509190056 | 30 | 23 | 6.4 | 14.5 | 0.00 | 0.00 | 0.00 | 63 | 1011.5 |
| 20260509185516 | 30 | 23 | 8.0 | 17.7 | 0.00 | 0.00 | 0.00 | 65 | 1011.6 |
| 20260509185016 | 30 | 23 | 9.7 | 16.1 | 0.00 | 0.00 | 0.00 | 65 | 1011.8 |
| 20260509184555 | 29 | 23 | 8.0 | 17.7 | 0.00 | 0.00 | 0.00 | 66 | 1011.8 |
| 20260509184016 | 29 | 338 | 6.4 | 16.1 | 0.00 | 0.00 | 0.00 | 69 | 1011.8 |
| 20260509183516 | 28 | 45 | 6.4 | 16.1 | 0.00 | 0.00 | 0.00 | 71 | 1011.9 |
| 20260509183016 | 28 | 23 | 9.7 | 17.7 | 0.00 | 0.00 | 0.00 | 70 | 1011.9 |
| 20260509182515 | 28 | 23 | 6.4 | 16.1 | 0.00 | 0.00 | 0.00 | 73 | 1012.0 |
| 20260509182016 | 28 | 0 | 6.4 | 14.5 | 0.00 | 0.00 | 0.00 | 72 | 1012.0 |
| 20260509181515 | 28 | 0 | 6.4 | 14.5 | 0.00 | 0.00 | 0.00 | 70 | 1012.1 |
| 20260509181015 | 28 | 0 | 6.4 | 14.5 | 0.00 | 0.00 | 0.00 | 69 | 1012.2 |
| 20260509180516 | 28 | 293 | 3.2 | 8.0 | 0.00 | 0.00 | 0.00 | 69 | 1012.3 |
| 20260509180016 | 29 | 315 | 1.6 | 9.7 | 0.00 | 0.00 | 0.00 | 66 | 1012.5 |
| 20260509175516 | 29 | 315 | 4.8 | 11.3 | 0.00 | 0.00 | 0.00 | 67 | 1012.4 |
| 20260509175015 | 29 | 315 | 3.2 | 11.3 | 0.00 | 0.00 | 0.00 | 70 | 1012.4 |
| 20260509174515 | 28 | 315 | 1.6 | 6.4 | 0.00 | 0.00 | 0.00 | 72 | 1012.5 |
| 20260509174015 | 28 | 248 | 3.2 | 9.7 | 0.00 | 0.00 | 0.00 | 72 | 1012.4 |
| 20260509173536 | 27 | 315 | 3.2 | 9.7 | 0.00 | 0.00 | 0.00 | 75 | 1012.3 |
| 20260509173036 | 27 | 293 | 1.6 | 8.0 | 0.00 | 0.00 | 0.00 | 75 | 1012.3 |
| 20260509172515 | 27 | 270 | 1.6 | 6.4 | 0.00 | 0.00 | 0.00 | 74 | 1012.4 |
| 20260509172016 | 27 | 248 | 1.6 | 6.4 | 0.00 | 0.00 | 0.00 | 77 | 1012.6 |
| 20260509171515 | 26 | 248 | 1.6 | 6.4 | 0.00 | 0.00 | 0.00 | 75 | 1012.5 |
| 20260509171015 | 26 | 248 | 3.2 | 8.0 | 0.00 | 0.00 | 0.00 | 74 | 1012.7 |
| 20260509170515 | 27 | 248 | 3.2 | 9.7 | 0.00 | 0.00 | 0.00 | 74 | 1012.9 |
| 20260509170015 | 27 | 248 | 4.8 | 9.7 | 0.00 | 0.00 | 0.00 | 73 | 1012.8 |
| 20260509165536 | 27 | 270 | 3.2 | 11.3 | 0.00 | 0.00 | 0.00 | 72 | 1012.9 |
| 20260509165016 | 28 | 225 | 4.8 | 12.9 | 0.00 | 0.00 | 0.00 | 74 | 1013.0 |
| 20260509164515 | 27 | 225 | 4.8 | 14.5 | 0.00 | 0.00 | 0.00 | 73 | 1012.7 |
| 20260509164016 | 28 | 225 | 4.8 | 16.1 | 0.00 | 0.00 | 0.00 | 72 | 1012.7 |
| 20260509163515 | 28 | 225 | 6.4 | 16.1 | 0.00 | 0.00 | 0.00 | 72 | 1012.6 |
| 20260509163035 | 28 | 180 | 4.8 | 12.9 | 0.00 | 0.00 | 0.00 | 74 | 1012.8 |
| 20260509162535 | 27 | 203 | 6.4 | 14.5 | 0.00 | 0.00 | 0.00 | 74 | 1012.8 |
| 20260509162015 | 27 | 225 | 6.4 | 14.5 | 0.00 | 0.00 | 0.00 | 75 | 1012.8 |
| 20260509161535 | 26 | 248 | 4.8 | 16.1 | 0.00 | 0.00 | 0.00 | 77 | 1012.7 |
| 20260509161015 | 26 | 225 | 6.4 | 12.9 | 0.00 | 0.00 | 0.00 | 79 | 1012.6 |
| 20260509160515 | 26 | 225 | 4.8 | 14.5 | 0.00 | 0.00 | 0.00 | 80 | 1012.7 |
| 20260509160015 | 26 | 203 | 4.8 | 12.9 | 0.00 | 0.00 | 0.00 | 78 | 1012.7 |
| 20260509155535 | 27 | 180 | 3.2 | 12.9 | 0.00 | 0.00 | 0.00 | 78 | 1012.7 |
| 20260509155015 | 27 | 180 | 3.2 | 14.5 | 0.00 | 0.00 | 0.00 | 78 | 1012.7 |
| 20260509154515 | 27 | 203 | 4.8 | 14.5 | 0.00 | 0.00 | 0.00 | 78 | 1012.5 |
| 20260509154015 | 27 | 203 | 4.8 | 14.5 | 0.00 | 0.00 | 0.00 | 78 | 1012.4 |
| 20260509153515 | 27 | 225 | 8.0 | 16.1 | 0.00 | 0.00 | 0.00 | 77 | 1012.3 |
| 20260509153036 | 27 | 225 | 6.4 | 20.9 | 0.00 | 0.00 | 0.00 | 78 | 1012.0 |
| 20260509152515 | 27 | 203 | 6.4 | 20.9 | 0.00 | 0.00 | 0.00 | 78 | 1012.0 |
| 20260509152015 | 27 | 225 | 3.2 | 12.9 | 0.00 | 0.00 | 0.00 | 78 | 1012.0 |
| 20260509151515 | 27 | 225 | 3.2 | 11.3 | 0.00 | 0.00 | 0.00 | 78 | 1012.0 |
| 20260509151015 | 27 | 180 | 4.8 | 11.3 | 0.00 | 0.00 | 0.00 | 77 | 1012.0 |
| 20260509150515 | 27 | 158 | 4.8 | 9.7 | 0.00 | 0.00 | 0.00 | 78 | 1011.9 |
| 20260509150015 | 27 | 158 | 3.2 | 16.1 | 0.00 | 0.00 | 0.00 | 79 | 1011.9 |
| 20260509145515 | 27 | 180 | 4.8 | 16.1 | 0.00 | 0.00 | 0.00 | 79 | 1011.9 |
| 20260509145015 | 26 | 203 | 4.8 | 16.1 | 0.00 | 0.00 | 0.00 | 79 | 1011.8 |
| 20260509144515 | 26 | 203 | 4.8 | 16.1 | 0.00 | 0.00 | 0.00 | 79 | 1011.7 |
| 20260509144015 | 26 | 203 | 4.8 | 16.1 | 0.00 | 0.00 | 0.00 | 79 | 1011.7 |
| 20260509143515 | 26 | 203 | 6.4 | 16.1 | 0.00 | 0.00 | 0.00 | 81 | 1011.6 |
| 20260509143015 | 26 | 203 | 4.8 | 12.9 | 0.00 | 0.00 | 0.00 | 83 | 1011.6 |
| 20260509142515 | 25 | 225 | 3.2 | 11.3 | 0.00 | 0.00 | 0.00 | 84 | 1011.6 |
| 20260509142015 | 25 | 203 | 3.2 | 9.7 | 0.00 | 0.00 | 0.00 | 84 | 1011.5 |
| 20260509141515 | 25 | 203 | 3.2 | 11.3 | 0.00 | 0.00 | 0.00 | 85 | 1011.4 |
| 20260509141015 | 25 | 180 | 3.2 | 6.4 | 0.00 | 0.00 | 0.00 | 86 | 1011.4 |
| 20260509140555 | 24 | 225 | 3.2 | 9.7 | 0.00 | 0.00 | 0.00 | 86 | 1011.4 |
| 20260509140015 | 24 | 180 | 1.6 | 9.7 | 0.00 | 0.00 | 0.00 | 82 | 1011.4 |
| 20260509135515 | 23 | 225 | 1.6 | 11.3 | 0.00 | 0.00 | 0.00 | 77 | 1011.2 |
| 20260509135015 | 23 | 203 | 3.2 | 9.7 | 0.00 | 0.00 | 0.00 | 73 | 1011.3 |
| 20260509134515 | 23 | 180 | 6.4 | 14.5 | 0.00 | 0.00 | 0.00 | 72 | 1011.1 |
| 20260509134015 | 23 | 180 | 3.2 | 14.5 | 0.00 | 0.00 | 0.00 | 72 | 1011.1 |
| 20260509133515 | 22 | 180 | 6.4 | 19.3 | 0.00 | 0.00 | 0.00 | 72 | 1011.3 |
| 20260509133015 | 22 | 180 | 6.4 | 19.3 | 0.00 | 0.00 | 0.00 | 72 | 1011.4 |
| 20260509132535 | 22 | 158 | 6.4 | 14.5 | 0.00 | 0.00 | 0.00 | 72 | 1011.5 |
| 20260509132017 | 22 | 158 | 6.4 | 17.7 | 0.00 | 0.00 | 0.00 | 72 | 1011.3 |
| 20260509131517 | 22 | 158 | 4.8 | 17.7 | 0.00 | 0.00 | 0.00 | 72 | 1011.2 |
| 20260509131017 | 22 | 180 | 6.4 | 16.1 | 0.00 | 0.00 | 0.00 | 72 | 1011.2 |
| 20260509130517 | 22 | 203 | 4.8 | 11.3 | 0.00 | 0.00 | 0.00 | 72 | 1011.3 |
| 20260509130017 | 22 | 180 | 3.2 | 9.7 | 0.00 | 0.00 | 0.00 | 72 | 1011.4 |
| 20260509125537 | 22 | 225 | 3.2 | 8.0 | 0.00 | 0.00 | 0.00 | 73 | 1011.5 |
| 20260509125037 | 21 | 248 | 1.6 | 4.8 | 0.00 | 0.00 | 0.00 | 73 | 1011.6 |
| 20260509124517 | 21 | 248 | 1.6 | 6.4 | 0.00 | 0.00 | 0.00 | 73 | 1011.6 |
| 20260509124017 | 21 | 0.0 | 3.2 | 0.00 | 0.00 | 0.00 | 73 | 1011.8 | |
| 20260509123517 | 21 | 0.0 | 1.6 | 0.00 | 0.00 | 0.00 | 73 | 1011.8 | |
| 20260509123017 | 21 | 0.0 | 3.2 | 0.00 | 0.00 | 0.00 | 73 | 1011.8 | |
| 20260509122517 | 21 | 23 | 1.6 | 4.8 | 0.00 | 0.00 | 0.00 | 73 | 1011.6 |
| 20260509122017 | 21 | 0.0 | 0.0 | 0.00 | 0.00 | 0.00 | 73 | 1011.8 | |
| 20260509121517 | 21 | 0.0 | 0.0 | 0.00 | 0.00 | 0.00 | 73 | 1011.7 | |
| 20260509121017 | 21 | 0.0 | 3.2 | 0.00 | 0.00 | 0.00 | 73 | 1011.8 | |
| 20260509120516 | 21 | 0.0 | 0.0 | 0.00 | 0.00 | 0.00 | 73 | 1012.0 | |
| 20260509120017 | 21 | 0.0 | 0.0 | 0.00 | 0.00 | 0.00 | 73 | 1012.1 | |
| 20260509115516 | 21 | 0.0 | 1.6 | 0.00 | 0.00 | 0.00 | 73 | 1012.2 | |
| 20260509115057 | 21 | 23 | 1.6 | 3.2 | 0.00 | 0.00 | 0.00 | 73 | 1012.1 |
| 20260509114517 | 21 | 0.0 | 0.0 | 0.00 | 0.00 | 0.00 | 73 | 1012.1 | |
| 20260509114057 | 21 | 0.0 | 0.0 | 0.00 | 0.00 | 0.00 | 73 | 1012.2 | |
| 20260509113537 | 21 | 0.0 | 0.0 | 0.00 | 0.00 | 0.00 | 73 | 1012.5 | |
| 20260509113017 | 21 | 0.0 | 1.6 | 0.00 | 0.00 | 0.00 | 73 | 1012.4 | |
| 20260509112537 | 21 | 0.0 | 1.6 | 0.00 | 0.00 | 0.00 | 73 | 1012.5 | |
| 20260509112017 | 21 | 23 | 1.6 | 3.2 | 0.00 | 0.00 | 0.00 | 74 | 1012.8 |
| 20260509111517 | 21 | 23 | 1.6 | 4.8 | 0.00 | 0.00 | 0.00 | 74 | 1012.7 |
| 20260509111017 | 21 | 23 | 3.2 | 6.4 | 0.00 | 0.00 | 0.00 | 74 | 1013.0 |
| 20260509110516 | 21 | 23 | 3.2 | 8.0 | 0.00 | 0.00 | 0.00 | 74 | 1013.2 |
| 20260509110017 | 21 | 23 | 1.6 | 4.8 | 0.00 | 0.00 | 0.00 | 74 | 1012.9 |
| 20260509105517 | 21 | 23 | 1.6 | 3.2 | 0.00 | 0.00 | 0.00 | 74 | 1012.9 |
| 20260509105037 | 21 | 23 | 1.6 | 4.8 | 0.00 | 0.00 | 0.00 | 74 | 1013.0 |
| 20260509104516 | 21 | 23 | 1.6 | 4.8 | 0.00 | 0.00 | 0.00 | 74 | 1013.1 |
| 20260509104017 | 21 | 0.0 | 4.8 | 0.00 | 0.00 | 0.00 | 74 | 1013.1 | |
| 20260509103516 | 21 | 0.0 | 0.0 | 0.00 | 0.00 | 0.00 | 74 | 1013.2 | |
| 20260509103017 | 21 | 0.0 | 0.0 | 0.00 | 0.00 | 0.00 | 74 | 1013.0 | |
| 20260509102516 | 21 | 0.0 | 1.6 | 0.00 | 0.00 | 0.00 | 74 | 1013.0 | |
| 20260509102017 | 21 | 0.0 | 3.2 | 0.00 | 0.00 | 0.00 | 74 | 1012.8 | |
| 20260509101537 | 21 | 23 | 3.2 | 4.8 | 0.00 | 0.00 | 0.00 | 74 | 1012.8 |
| 20260509101017 | 21 | 23 | 4.8 | 8.0 | 0.00 | 0.00 | 0.00 | 75 | 1012.8 |
| 20260509100516 | 21 | 23 | 6.4 | 11.3 | 0.00 | 0.00 | 0.00 | 75 | 1012.7 |
| 20260509100017 | 21 | 23 | 3.2 | 9.7 | 0.00 | 0.00 | 0.00 | 75 | 1012.7 |
| 20260509095516 | 21 | 23 | 1.6 | 4.8 | 0.00 | 0.00 | 0.00 | 75 | 1012.5 |
| 20260509095016 | 21 | 113 | 3.2 | 8.0 | 0.00 | 0.00 | 0.00 | 75 | 1012.4 |
| 20260509094516 | 21 | 135 | 3.2 | 6.4 | 0.00 | 0.00 | 0.00 | 75 | 1012.3 |
| 20260509094037 | 21 | 135 | 1.6 | 4.8 | 0.00 | 0.00 | 0.00 | 75 | 1012.1 |
| 20260509093516 | 21 | 0.0 | 0.0 | 0.00 | 0.00 | 0.00 | 76 | 1011.8 | |
| 20260509093016 | 21 | 0.0 | 4.8 | 0.00 | 0.00 | 0.00 | 76 | 1011.7 | |
| 20260509092537 | 21 | 135 | 1.6 | 4.8 | 0.00 | 0.00 | 0.00 | 76 | 1011.6 |
| 20260509092016 | 21 | 135 | 1.6 | 4.8 | 0.00 | 0.00 | 0.00 | 76 | 1011.5 |
| 20260509091517 | 21 | 0.0 | 1.6 | 0.00 | 0.00 | 0.00 | 76 | 1011.3 | |
| 20260509091016 | 21 | 0.0 | 1.6 | 0.00 | 0.00 | 0.00 | 77 | 1011.4 | |
| 20260509090517 | 21 | 0.0 | 1.6 | 0.00 | 0.00 | 0.00 | 77 | 1011.4 | |
| 20260509090017 | 21 | 0.0 | 3.2 | 0.00 | 0.00 | 0.00 | 77 | 1011.5 | |
| 20260509085517 | 21 | 0.0 | 0.0 | 0.00 | 0.00 | 0.00 | 77 | 1011.4 | |
| 20260509085016 | 21 | 0.0 | 0.0 | 0.00 | 0.00 | 0.00 | 77 | 1011.6 | |
| 20260509084517 | 21 | 0.0 | 3.2 | 0.00 | 0.00 | 0.00 | 78 | 1011.7 | |
| 20260509084016 | 21 | 0.0 | 0.0 | 0.00 | 0.00 | 0.00 | 78 | 1011.8 | |
| 20260509083518 | 21 | 0.0 | 0.0 | 0.00 | 0.00 | 0.00 | 78 | 1012.1 | |
| 20260509083017 | 21 | 0.0 | 3.2 | 0.00 | 0.00 | 0.00 | 79 | 1012.2 | |
| 20260509082516 | 21 | 0.0 | 1.6 | 0.00 | 0.00 | 0.00 | 79 | 1012.1 | |
| 20260509082016 | 21 | 0.0 | 3.2 | 0.00 | 0.00 | 0.00 | 80 | 1011.9 | |
| 20260509081516 | 22 | 0.0 | 0.0 | 0.00 | 0.00 | 0.00 | 80 | 1011.9 | |
| 20260509081016 | 22 | 0.0 | 1.6 | 0.00 | 0.00 | 0.00 | 81 | 1011.8 | |
| 20260509080516 | 22 | 0.0 | 0.0 | 0.00 | 0.00 | 0.00 | 81 | 1011.8 | |
| 20260509080016 | 22 | 0.0 | 3.2 | 0.00 | 0.00 | 0.00 | 82 | 1012.1 | |
| 20260509075517 | 22 | 0.0 | 3.2 | 0.00 | 0.00 | 0.00 | 82 | 1012.2 | |
| 20260509075036 | 22 | 113 | 1.6 | 6.4 | 0.00 | 0.00 | 0.00 | 82 | 1012.3 |
| 20260509074516 | 22 | 135 | 1.6 | 4.8 | 0.00 | 0.00 | 0.00 | 83 | 1012.1 |
| 20260509074016 | 22 | 135 | 1.6 | 4.8 | 0.00 | 0.00 | 0.00 | 83 | 1012.3 |
| 20260509073516 | 22 | 135 | 1.6 | 4.8 | 0.00 | 0.00 | 0.00 | 83 | 1012.5 |
| 20260509073016 | 22 | 135 | 1.6 | 4.8 | 0.00 | 0.00 | 0.00 | 84 | 1012.6 |
| 20260509072516 | 22 | 158 | 1.6 | 4.8 | 0.00 | 0.00 | 0.00 | 84 | 1012.5 |
| 20260509072036 | 22 | 0.0 | 3.2 | 0.00 | 0.00 | 0.00 | 84 | 1012.7 | |
| 20260509071516 | 22 | 158 | 1.6 | 4.8 | 0.00 | 0.00 | 0.00 | 84 | 1012.7 |
| 20260509071017 | 22 | 158 | 1.6 | 3.2 | 0.00 | 0.00 | 0.00 | 85 | 1012.7 |
| 20260509070516 | 22 | 158 | 1.6 | 3.2 | 0.00 | 0.00 | 0.00 | 85 | 1012.7 |
| 20260509070016 | 22 | 158 | 1.6 | 6.4 | 0.00 | 0.00 | 0.00 | 85 | 1012.6 |
| 20260509065516 | 22 | 0.0 | 3.2 | 0.00 | 0.00 | 0.00 | 85 | 1012.5 | |
| 20260509065016 | 22 | 0.0 | 3.2 | 0.00 | 0.00 | 0.00 | 85 | 1012.5 | |
| 20260509064516 | 22 | 0.0 | 0.0 | 0.00 | 0.00 | 0.00 | 85 | 1012.5 | |
| 20260509064016 | 22 | 0.0 | 0.0 | 0.00 | 0.00 | 0.00 | 85 | 1012.6 | |
| 20260509063516 | 22 | 0.0 | 0.0 | 0.00 | 0.00 | 0.00 | 86 | 1012.6 | |
| 20260509063016 | 22 | 0.0 | 0.0 | 0.00 | 0.00 | 0.00 | 86 | 1012.6 | |
| 20260509062516 | 22 | 0.0 | 0.0 | 0.00 | 0.00 | 0.00 | 86 | 1012.5 | |
| 20260509062016 | 22 | 158 | 1.6 | 4.8 | 0.00 | 0.00 | 0.00 | 86 | 1012.4 |
| 20260509061516 | 22 | 0.0 | 4.8 | 0.00 | 0.00 | 0.00 | 86 | 1012.2 | |
| 20260509061017 | 22 | 158 | 1.6 | 6.4 | 0.00 | 0.00 | 0.00 | 86 | 1012.3 |
| 20260509060557 | 22 | 158 | 3.2 | 9.7 | 0.00 | 0.00 | 0.00 | 86 | 1012.3 |
| 20260509060016 | 22 | 158 | 6.4 | 16.1 | 0.00 | 0.00 | 0.00 | 88 | 1012.1 |
| 20260509055516 | 22 | 180 | 4.8 | 16.1 | 0.00 | 0.00 | 0.00 | 88 | 1012.1 |
| 20260509055016 | 22 | 158 | 4.8 | 14.5 | 0.00 | 0.00 | 0.00 | 88 | 1012.2 |
| 20260509054516 | 22 | 135 | 4.8 | 16.1 | 0.00 | 0.00 | 0.00 | 88 | 1011.8 |
| 20260509054016 | 22 | 135 | 4.8 | 16.1 | 0.00 | 0.00 | 0.00 | 88 | 1011.5 |
| 20260509053516 | 22 | 135 | 4.8 | 17.7 | 0.00 | 0.00 | 0.00 | 88 | 1011.3 |
| 20260509053016 | 22 | 158 | 6.4 | 14.5 | 0.00 | 0.00 | 0.00 | 88 | 1011.2 |
| 20260509052516 | 22 | 158 | 3.2 | 9.7 | 0.00 | 0.00 | 0.00 | 88 | 1011.0 |
| 20260509052016 | 22 | 158 | 3.2 | 12.9 | 0.00 | 0.00 | 0.00 | 88 | 1011.0 |
| 20260509051536 | 22 | 135 | 3.2 | 8.0 | 0.00 | 0.00 | 0.00 | 88 | 1011.0 |
| 20260509051016 | 22 | 135 | 4.8 | 14.5 | 0.00 | 0.00 | 0.00 | 88 | 1010.8 |
| 20260509050516 | 22 | 135 | 4.8 | 14.5 | 0.00 | 0.00 | 0.00 | 88 | 1010.7 |
| 20260509050016 | 22 | 135 | 4.8 | 11.3 | 0.00 | 0.00 | 0.00 | 88 | 1010.7 |
| 20260509045517 | 22 | 135 | 4.8 | 14.5 | 0.00 | 0.00 | 0.00 | 88 | 1010.7 |
| 20260509045017 | 22 | 158 | 3.2 | 8.0 | 0.00 | 0.00 | 0.00 | 88 | 1010.9 |
| 20260509044537 | 22 | 135 | 3.2 | 11.3 | 0.00 | 0.00 | 0.00 | 88 | 1011.0 |
| 20260509044037 | 22 | 135 | 1.6 | 6.4 | 0.00 | 0.00 | 0.00 | 88 | 1011.1 |
| 20260509043517 | 22 | 135 | 1.6 | 6.4 | 0.00 | 0.00 | 0.00 | 86 | 1011.3 |
| 20260509043017 | 22 | 135 | 1.6 | 6.4 | 0.00 | 0.00 | 0.00 | 86 | 1011.2 |
| 20260509042517 | 22 | 135 | 1.6 | 6.4 | 0.00 | 0.00 | 0.00 | 86 | 1011.2 |
| 20260509042017 | 22 | 158 | 4.8 | 14.5 | 0.00 | 0.00 | 0.00 | 86 | 1011.3 |
| 20260509041536 | 22 | 158 | 3.2 | 9.7 | 0.00 | 0.00 | 0.00 | 86 | 1011.3 |
| 20260509041017 | 22 | 158 | 1.6 | 6.4 | 0.00 | 0.00 | 0.00 | 88 | 1011.3 |
| 20260509040517 | 22 | 180 | 1.6 | 11.3 | 0.00 | 0.00 | 0.00 | 88 | 1011.4 |
| 20260509040037 | 22 | 135 | 1.6 | 6.4 | 0.00 | 0.00 | 0.00 | 88 | 1011.4 |
| 20260509035516 | 22 | 135 | 1.6 | 6.4 | 0.00 | 0.00 | 0.00 | 88 | 1011.4 |
| 20260509035016 | 22 | 135 | 1.6 | 8.0 | 0.00 | 0.00 | 0.00 | 88 | 1011.4 |
| 20260509034517 | 22 | 158 | 1.6 | 6.4 | 0.00 | 0.00 | 0.00 | 88 | 1011.3 |
| 20260509034016 | 22 | 158 | 1.6 | 4.8 | 0.00 | 0.00 | 0.00 | 88 | 1011.3 |
| 20260509033517 | 22 | 158 | 1.6 | 4.8 | 0.00 | 0.00 | 0.00 | 86 | 1011.3 |
| 20260509033017 | 22 | 158 | 1.6 | 6.4 | 0.00 | 0.00 | 0.00 | 86 | 1011.1 |
| 20260509032537 | 22 | 158 | 1.6 | 6.4 | 0.00 | 0.00 | 0.00 | 86 | 1010.8 |
| 20260509032037 | 22 | 135 | 3.2 | 8.0 | 0.00 | 0.00 | 0.00 | 86 | 1010.7 |
| 20260509031516 | 22 | 135 | 3.2 | 12.9 | 0.00 | 0.00 | 0.00 | 86 | 1010.9 |
| 20260509031017 | 22 | 135 | 1.6 | 6.4 | 0.00 | 0.00 | 0.00 | 86 | 1010.9 |
| 20260509030517 | 22 | 135 | 3.2 | 11.3 | 0.00 | 0.00 | 0.00 | 86 | 1010.9 |
| 20260509030016 | 22 | 158 | 3.2 | 9.7 | 0.00 | 0.00 | 0.00 | 86 | 1010.9 |
| 20260509025516 | 22 | 158 | 3.2 | 9.7 | 0.00 | 0.00 | 0.00 | 86 | 1010.8 |
| 20260509025017 | 22 | 135 | 3.2 | 11.3 | 0.00 | 0.00 | 0.00 | 86 | 1010.9 |
| 20260509024536 | 22 | 135 | 3.2 | 8.0 | 0.00 | 0.00 | 0.00 | 86 | 1010.8 |
| 20260509024017 | 22 | 135 | 3.2 | 8.0 | 0.00 | 0.00 | 0.00 | 85 | 1010.8 |
| 20260509023517 | 22 | 158 | 3.2 | 11.3 | 0.00 | 0.00 | 0.00 | 85 | 1010.8 |
| 20260509023017 | 22 | 135 | 1.6 | 8.0 | 0.00 | 0.00 | 0.00 | 85 | 1010.9 |
| 20260509022517 | 23 | 135 | 1.6 | 6.4 | 0.00 | 0.00 | 0.00 | 85 | 1010.9 |
| 20260509022016 | 23 | 135 | 1.6 | 6.4 | 0.00 | 0.00 | 0.00 | 84 | 1010.6 |
| 20260509021517 | 23 | 135 | 3.2 | 9.7 | 0.00 | 0.00 | 0.00 | 84 | 1010.6 |
| 20260509021016 | 23 | 135 | 4.8 | 12.9 | 0.00 | 0.00 | 0.00 | 84 | 1010.5 |
| 20260509020517 | 23 | 135 | 4.8 | 14.5 | 0.00 | 0.00 | 0.00 | 84 | 1010.4 |
| 20260509020016 | 23 | 135 | 1.6 | 11.3 | 0.00 | 0.00 | 0.00 | 84 | 1010.4 |
| 20260509015516 | 23 | 135 | 3.2 | 11.3 | 0.00 | 0.00 | 0.00 | 84 | 1010.2 |
| 20260509015017 | 23 | 135 | 4.8 | 11.3 | 0.00 | 0.00 | 0.00 | 83 | 1010.3 |
| 20260509014517 | 23 | 135 | 3.2 | 9.7 | 0.00 | 0.00 | 0.00 | 83 | 1010.3 |
| 20260509014036 | 23 | 135 | 3.2 | 8.0 | 0.00 | 0.00 | 0.00 | 83 | 1010.3 |
| 20260509013536 | 23 | 113 | 3.2 | 6.4 | 0.00 | 0.00 | 0.00 | 82 | 1010.2 |
| 20260509013036 | 24 | 113 | 4.8 | 12.9 | 0.00 | 0.00 | 0.00 | 82 | 1010.1 |
| 20260509012516 | 24 | 113 | 4.8 | 14.5 | 0.00 | 0.00 | 0.00 | 81 | 1010.0 |
| 20260509012016 | 24 | 90 | 4.8 | 14.5 | 0.00 | 0.00 | 0.00 | 81 | 1009.9 |
| 20260509011516 | 24 | 90 | 3.2 | 9.7 | 0.00 | 0.00 | 0.00 | 81 | 1010.0 |
| 20260509011016 | 24 | 90 | 3.2 | 6.4 | 0.00 | 0.00 | 0.00 | 81 | 1010.1 |
| 20260509010516 | 24 | 90 | 4.8 | 9.7 | 0.00 | 0.00 | 0.00 | 80 | 1010.1 |
| 20260509010016 | 24 | 90 | 4.8 | 12.9 | 0.00 | 0.00 | 0.00 | 80 | 1010.1 |
| 20260509005536 | 24 | 90 | 6.4 | 14.5 | 0.00 | 0.00 | 0.00 | 80 | 1010.1 |
| 20260509005016 | 24 | 90 | 4.8 | 9.7 | 0.00 | 0.00 | 0.00 | 80 | 1010.1 |
| 20260509004516 | 24 | 90 | 8.0 | 16.1 | 0.00 | 0.00 | 0.00 | 79 | 1010.1 |
| 20260509004016 | 25 | 90 | 6.4 | 17.7 | 0.00 | 0.00 | 0.00 | 79 | 1010.1 |
| 20260509003517 | 25 | 90 | 6.4 | 12.9 | 0.00 | 0.00 | 0.00 | 79 | 1010.1 |
| 20260509003036 | 25 | 90 | 6.4 | 16.1 | 0.00 | 0.00 | 0.00 | 78 | 1010.1 |
| 20260509002516 | 25 | 90 | 6.4 | 14.5 | 0.00 | 0.00 | 0.00 | 78 | 1010.0 |
| 20260509002036 | 25 | 90 | 6.4 | 14.5 | 0.00 | 0.00 | 0.00 | 78 | 1010.2 |
| 20260509001516 | 25 | 90 | 6.4 | 14.5 | 0.00 | 0.00 | 0.00 | 78 | 1010.2 |
| 20260509001036 | 25 | 90 | 4.8 | 12.9 | 0.00 | 0.00 | 0.00 | 78 | 1010.1 |
| 20260509000516 | 25 | 113 | 4.8 | 12.9 | 0.00 | 0.00 | 0.00 | 78 | 1010.2 |
| 20260509000016 | 25 | 135 | 1.6 | 9.7 | 0.00 | 0.00 | 0.00 | 77 | 1010.2 |
| 20260508235516 | 25 | 135 | 4.8 | 12.9 | 0.00 | 0.00 | 0.00 | 77 | 1010.1 |
| 20260508235016 | 25 | 113 | 6.4 | 11.3 | 0.00 | 0.00 | 0.00 | 77 | 1010.3 |
| 20260508234516 | 25 | 90 | 6.4 | 12.9 | 0.00 | 0.00 | 0.00 | 77 | 1010.3 |
| 20260508234016 | 25 | 113 | 6.4 | 12.9 | 0.00 | 0.00 | 0.00 | 77 | 1010.2 |
| 20260508233516 | 25 | 90 | 8.0 | 17.7 | 0.00 | 0.00 | 0.00 | 77 | 1010.2 |
| 20260508233017 | 25 | 90 | 8.0 | 19.3 | 0.00 | 0.00 | 0.00 | 77 | 1010.2 |
| 20260508232516 | 25 | 113 | 4.8 | 12.9 | 0.00 | 0.00 | 0.00 | 77 | 1010.4 |
| 20260508232016 | 25 | 90 | 6.4 | 17.7 | 0.00 | 0.00 | 0.00 | 77 | 1010.3 |
| 20260508231516 | 25 | 113 | 4.8 | 12.9 | 0.00 | 0.00 | 0.00 | 77 | 1010.2 |
| 20260508231016 | 25 | 90 | 6.4 | 14.5 | 0.00 | 0.00 | 0.00 | 78 | 1010.1 |
| 20260508230536 | 25 | 90 | 6.4 | 16.1 | 0.00 | 0.00 | 0.00 | 78 | 1010.3 |
| 20260508230016 | 25 | 90 | 8.0 | 14.5 | 0.00 | 0.00 | 0.00 | 78 | 1010.3 |
| 20260508225516 | 25 | 90 | 6.4 | 16.1 | 0.00 | 0.00 | 0.00 | 77 | 1010.3 |
| 20260508225016 | 25 | 90 | 6.4 | 12.9 | 0.00 | 0.00 | 0.00 | 77 | 1010.3 |
| 20260508224516 | 25 | 90 | 8.0 | 16.1 | 0.00 | 0.00 | 0.00 | 77 | 1010.3 |
| 20260508224016 | 25 | 90 | 8.0 | 17.7 | 0.00 | 0.00 | 0.00 | 76 | 1010.2 |
| 20260508223516 | 25 | 90 | 9.7 | 17.7 | 0.00 | 0.00 | 0.00 | 76 | 1010.2 |
| 20260508223016 | 25 | 90 | 8.0 | 16.1 | 0.00 | 0.00 | 0.00 | 76 | 1010.3 |
| 20260508222516 | 25 | 90 | 6.4 | 16.1 | 0.00 | 0.00 | 0.00 | 76 | 1010.2 |
| 20260508222016 | 25 | 90 | 8.0 | 14.5 | 0.00 | 0.00 | 0.00 | 76 | 1010.2 |
| 20260508221516 | 25 | 90 | 6.4 | 17.7 | 0.00 | 0.00 | 0.00 | 75 | 1010.3 |
| 20260508221016 | 25 | 90 | 6.4 | 12.9 | 0.00 | 0.00 | 0.00 | 75 | 1010.2 |
| 20260508220516 | 26 | 90 | 4.8 | 9.7 | 0.00 | 0.00 | 0.00 | 74 | 1010.4 |
| 20260508220016 | 26 | 90 | 6.4 | 12.9 | 0.00 | 0.00 | 0.00 | 74 | 1010.4 |
| 20260508215516 | 25 | 113 | 4.8 | 14.5 | 0.00 | 0.00 | 0.00 | 75 | 1010.5 |
| 20260508215016 | 25 | 90 | 6.4 | 12.9 | 0.00 | 0.00 | 0.00 | 74 | 1010.5 |
| 20260508214516 | 26 | 90 | 6.4 | 14.5 | 0.00 | 0.00 | 0.00 | 73 | 1010.6 |
| 20260508214016 | 25 | 90 | 6.4 | 14.5 | 0.00 | 0.00 | 0.00 | 74 | 1010.5 |
| 20260508213516 | 25 | 90 | 6.4 | 16.1 | 0.00 | 0.00 | 0.00 | 73 | 1010.6 |